Location: Cactus School
(34.5700°N, 118.0931°W)
Time: 03:05:02
(UTC-08:00)

Vanguard 1 - Visible Passes

Search period start: 22 November 2017 00:00
Search period end: 02 December 2017 00:00
Orbit: 650 x 3834 km, 34.2° (Epoch: 22 November)

Date Brightness Start Highest point End Pass type
(mag) Time Alt. Az. Time Alt. Az. Time Alt. Az.
22 Nov 9.5 18:54:29 10° W 18:58:27 63° SW 18:58:27 63° SW visible
23 Nov 10.5 19:15:32 10° W 19:18:26 37° WSW 19:18:26 37° WSW visible
24 Nov 9.2 17:16:00 10° W 17:20:59 86° S 17:25:26 10° E visible
24 Nov 11.4 19:36:39 10° W 19:38:27 22° WSW 19:38:27 22° WSW visible
25 Nov 9.3 17:37:09 10° W 17:41:58 77° S 17:45:46 14° ESE visible
25 Nov 12.1 19:57:56 10° W 19:58:30 13° WSW 19:58:30 13° WSW visible
26 Nov 9.5 17:58:18 10° W 18:02:56 62° SSW 18:05:51 21° ESE visible
27 Nov 10.0 18:19:27 10° W 18:23:51 46° SSW 18:25:59 26° SE visible
28 Nov 10.6 18:40:42 10° W 18:44:44 32° SSW 18:46:11 26° SSE visible
29 Nov 11.2 19:02:10 10° WSW 19:05:35 21° SSW 19:06:27 20° S visible
30 Nov 9.9 17:01:29 10° W 17:06:59 60° SSW 17:11:19 10° ESE visible
30 Nov 11.8 19:24:15 10° WSW 19:26:26 13° SSW 19:26:48 13° SSW visible
01 Dec 10.4 17:22:47 10° W 17:27:51 44° SSW 17:32:02 10° SE visible
